Clines Corner, NM

12:57 AM MDT on June 29, 2017 (GMT -0600)
Clines Corner

Weather History for KCQC - May, 2013

Change the Weather History Date:

Sunday, May 19, 2013

  Actual Average (KSAF) Record (KSAF)
Temperature  
Mean Temperature 58 °F -  
Max Temperature 70 °F 74 °F 89 °F (2006)
Min Temperature 48 °F 38 °F 36 °F (1978)
Degree Days  
Heating Degree Days 7    
Growing Degree Days 8 (Base 50)    
Moisture  
Dew Point 24 °F    
Average Humidity 30    
Maximum Humidity 48    
Minimum Humidity 12    
Precipitation  
Precipitation 0.00 in - - ()
Sea Level Pressure  
Sea Level Pressure 29.75 in    
Wind  
Wind Speed 19 mph (WNW)    
Max Wind Speed 36 mph    
Max Gust Speed 43 mph    
Visibility 10 miles    
Events      
Averages and records for this station are not official NWS values.
T = Trace of Precipitation, MM = Missing Value Source: NWS Daily Summary

Daily Weather History Graph

Daily Weather History Graph

Search for Another Location

Airport or City:

Trip Planner

Search our weather history database for the weather conditions in past years. The results will help you decide how hot, cold, wet, or windy it might be!

Date:

Astronomy

May. 19, 2013 Rise Set
Actual Time 5:56 AM MDT 8:02 PM MDT
Civil Twilight 5:27 AM MDT 8:31 PM MDT
Nautical Twilight 4:53 AM MDT 9:05 PM MDT
Astronomical Twilight 4:15 AM MDT 9:43 PM MDT
Moon 2:22 PM MDT (5/19) 2:06 AM MDT (5/19)
Length of Visible Light 15h 03m
Length of Day
14h 06m
Waxing Gibbous, 66% of the Moon is Illuminated
May 19
Waxing Gibbous
May 24
Full
May 31
Last Quarter
Jun 8
New
Jun 16
First Quarter

Hourly Weather History & Observations

Time (MDT) Temp. Dew Point Humidity Pressure Visibility Wind Dir Wind Speed Gust Speed Precip Events Conditions
12:53 AM 52.0 °F 24.1 °F 34% 29.73 in 10.0 mi WNW 15.0 mph - N/A   Clear
1:53 AM 48.0 °F 24.1 °F 39% 29.77 in 10.0 mi WNW 12.7 mph - N/A   Clear
2:53 AM 51.1 °F 28.0 °F 41% 29.75 in 10.0 mi WNW 19.6 mph 27.6 mph N/A   Clear
3:53 AM 51.1 °F 30.0 °F 44% 29.74 in 10.0 mi NW 18.4 mph 25.3 mph N/A   Scattered Clouds
4:53 AM 48.9 °F 30.0 °F 48% 29.78 in 10.0 mi NW 11.5 mph - N/A   Scattered Clouds
5:53 AM 48.9 °F 30.0 °F 48% 29.78 in 10.0 mi WNW 11.5 mph - N/A   Overcast
6:53 AM 51.1 °F 30.9 °F 46% 29.80 in 10.0 mi WNW 6.9 mph - N/A   Mostly Cloudy
7:53 AM 54.0 °F 30.9 °F 41% 29.79 in 10.0 mi West 21.9 mph 27.6 mph N/A   Clear
8:53 AM 57.9 °F 30.0 °F 35% 29.79 in 10.0 mi WNW 23.0 mph 29.9 mph N/A   Clear
9:53 AM 61.0 °F 28.0 °F 29% 29.78 in 10.0 mi West 18.4 mph 34.5 mph N/A   Partly Cloudy
10:53 AM 62.1 °F 25.0 °F 24% 29.75 in 10.0 mi WNW 25.3 mph 35.7 mph N/A   Clear
11:53 AM 64.0 °F 26.1 °F 24% 29.75 in 10.0 mi WNW 31.1 mph 39.1 mph N/A   Clear
12:53 PM 66.9 °F 24.1 °F 20% 29.73 in 10.0 mi WNW 26.5 mph 41.4 mph N/A   Clear
1:53 PM 66.0 °F 23.0 °F 20% 29.75 in 10.0 mi WNW 24.2 mph 40.3 mph N/A   Partly Cloudy
2:53 PM 68.0 °F 21.0 °F 17% 29.71 in 10.0 mi WNW 28.8 mph 35.7 mph N/A   Partly Cloudy
3:53 PM 68.0 °F 14.0 °F 12% 29.70 in 10.0 mi West 25.3 mph 40.3 mph N/A   Partly Cloudy
4:53 PM 66.0 °F 18.0 °F 16% 29.70 in 10.0 mi West 35.7 mph 42.6 mph N/A   Mostly Cloudy
5:53 PM 64.0 °F 23.0 °F 21% 29.74 in 10.0 mi NW 29.9 mph 41.4 mph N/A   Clear
6:53 PM 60.1 °F 21.9 °F 23% 29.75 in 10.0 mi NNW 25.3 mph 36.8 mph N/A   Clear
7:53 PM 57.9 °F 19.9 °F 23% 29.75 in 10.0 mi NW 19.6 mph 26.5 mph N/A   Clear
8:53 PM 57.0 °F 18.0 °F 22% 29.75 in 10.0 mi NW 16.1 mph - N/A   Partly Cloudy
9:53 PM 55.9 °F 23.0 °F 28% 29.75 in 10.0 mi NNW 17.3 mph 24.2 mph N/A   Clear
10:53 PM 54.0 °F 23.0 °F 30% 29.77 in 10.0 mi NW 11.5 mph - N/A   Partly Cloudy
11:53 PM 51.1 °F 21.9 °F 32% 29.76 in 10.0 mi NW 13.8 mph - N/A   Clear